Location: Bernay
(48.6766°N, 2.9386°E)
Time: 22:58:03
(UTC+00:00)

SAR-Lupe-4 - Pass Details

Date: 12 January 2026
Orbit: 480 x 483 km, 98.1° (Epoch: 10 January)

Event Time Altitude Azimuth Distance (km) Brightness Sun altitude
Rises 16:57:57 0° 140° (SE) 2,536 7.1 -6.9°
Reaches altitude 10° 17:00:09 10° 129° (SE) 1,662 6.0 -7.2°
Maximum altitude 17:03:18 30° 67° (ENE) 902 4.4 -7.7°
Drops below altitude 10° 17:06:28 10° 6° (N) 1,675 6.0 -8.2°
Sets 17:08:42 0° 355° (N) 2,561 7.0 -8.5°
